Time,TemperatureF,DewpointF,PressureIn,WindDirection,WindDirectionDegrees,WindSpeedMPH,WindSpeedGustMPH,Humidity,HourlyPrecipIn,Conditions,Clouds,dailyrainin,SoftwareType,DateUTC
2017-11-18 00:02:00,40.1,18.3,29.88,NNW,327,15.0,44.0,41,0.00,,---,0.01,VWS V15.00,2017-11-18 07:02:00,
2017-11-18 00:10:00,39.5,19.9,29.89,WNW,291,15.0,40.0,45,0.00,,---,0.01,VWS V15.00,2017-11-18 07:10:00,
2017-11-18 00:16:00,37.7,22.6,29.90,West,270,5.0,45.0,54,0.00,,---,0.01,VWS V15.00,2017-11-18 07:16:00,
2017-11-18 00:21:00,36.2,24.1,29.93,NW,313,44.0,56.0,61,0.00,,---,0.01,VWS V15.00,2017-11-18 07:21:00,
2017-11-18 00:28:00,34.8,25.3,29.97,WNW,294,12.0,29.0,68,0.00,,---,0.01,VWS V15.00,2017-11-18 07:28:00,
2017-11-18 00:33:00,34.1,26.4,29.98,NNW,344,13.0,14.0,73,0.00,,---,0.01,VWS V15.00,2017-11-18 07:33:00,
2017-11-18 00:38:00,33.5,26.8,29.98,NNW,330,6.0,17.0,76,0.00,,---,0.01,VWS V15.00,2017-11-18 07:38:00,
2017-11-18 00:43:00,33.3,26.9,30.00,NNW,346,9.0,18.0,77,0.00,,---,0.01,VWS V15.00,2017-11-18 07:43:00,
2017-11-18 00:49:00,33.4,26.7,30.00,NNW,329,15.0,23.0,76,0.00,,---,0.01,VWS V15.00,2017-11-18 07:49:00,
2017-11-18 00:54:00,33.4,26.3,30.00,NW,323,4.0,8.0,75,0.00,,---,0.01,VWS V15.00,2017-11-18 07:54:00,
2017-11-18 01:00:00,33.4,26.0,30.00,NNW,340,6.0,11.0,74,0.00,,---,0.01,VWS V15.00,2017-11-18 08:00:00,
2017-11-18 01:05:00,33.3,25.9,30.01,WNW,303,17.0,17.0,74,0.00,,---,0.01,VWS V15.00,2017-11-18 08:05:00,
2017-11-18 01:10:00,33.2,25.5,30.06,NNW,338,13.0,15.0,73,0.00,,---,0.01,VWS V15.00,2017-11-18 08:10:00,
2017-11-18 01:15:00,33.2,25.5,30.06,NNW,336,8.0,23.0,73,0.00,,---,0.01,VWS V15.00,2017-11-18 08:15:00,
2017-11-18 01:21:00,33.1,24.7,30.07,NNW,329,7.0,9.0,71,0.00,,---,0.01,VWS V15.00,2017-11-18 08:21:00,
2017-11-18 01:26:00,33.2,24.1,30.07,WNW,302,17.0,19.0,69,0.00,,---,0.01,VWS V15.00,2017-11-18 08:26:00,
2017-11-18 01:31:00,33.2,23.8,30.07,NNW,329,15.0,16.0,68,0.00,,---,0.01,VWS V15.00,2017-11-18 08:31:00,
2017-11-18 01:36:00,33.2,23.5,30.07,WNW,288,6.0,8.0,67,0.00,,---,0.01,VWS V15.00,2017-11-18 08:36:00,
2017-11-18 01:43:00,33.2,23.5,30.08,NW,323,4.0,16.0,67,0.00,,---,0.01,VWS V15.00,2017-11-18 08:43:00,
2017-11-18 01:48:00,33.4,23.3,30.08,NNW,333,5.0,15.0,66,0.00,,---,0.01,VWS V15.00,2017-11-18 08:48:00,
2017-11-18 01:53:00,33.7,23.2,30.08,NW,309,4.0,13.0,65,0.00,,---,0.01,VWS V15.00,2017-11-18 08:53:00,
2017-11-18 01:58:00,33.6,23.1,30.08,NNW,346,6.0,8.0,65,0.00,,---,0.01,VWS V15.00,2017-11-18 08:58:00,
2017-11-18 02:03:00,33.5,23.0,30.08,NW,306,4.0,6.0,65,0.00,,---,0.01,VWS V15.00,2017-11-18 09:03:00,
2017-11-18 02:08:00,33.5,23.0,30.09,West,281,7.0,10.0,65,0.00,,---,0.01,VWS V15.00,2017-11-18 09:08:00,
2017-11-18 02:13:00,33.4,22.9,30.09,WNW,290,7.0,11.0,65,0.00,,---,0.01,VWS V15.00,2017-11-18 09:13:00,
2017-11-18 02:18:00,33.3,23.2,30.11,WNW,292,10.0,10.0,66,0.00,,---,0.01,VWS V15.00,2017-11-18 09:18:00,
2017-11-18 02:25:00,33.1,23.4,30.11,WNW,287,6.0,8.0,67,0.00,,---,0.01,VWS V15.00,2017-11-18 09:25:00,
2017-11-18 02:30:00,32.9,23.2,30.12,West,279,9.0,12.0,67,0.00,,---,0.01,VWS V15.00,2017-11-18 09:30:00,
2017-11-18 02:35:00,32.8,23.1,30.12,WNW,283,5.0,7.0,67,0.00,,---,0.01,VWS V15.00,2017-11-18 09:35:00,
2017-11-18 02:41:00,32.7,22.6,30.12,West,269,10.0,10.0,66,0.00,,---,0.01,VWS V15.00,2017-11-18 09:41:00,
2017-11-18 02:47:00,32.6,21.8,30.13,WNW,290,4.0,9.0,64,0.00,,---,0.01,VWS V15.00,2017-11-18 09:47:00,
2017-11-18 02:52:00,32.6,21.4,30.13,WNW,298,6.0,6.0,63,0.00,,---,0.01,VWS V15.00,2017-11-18 09:52:00,
2017-11-18 02:58:00,32.6,21.0,30.13,WNW,291,3.0,8.0,62,0.00,,---,0.01,VWS V15.00,2017-11-18 09:58:00,
2017-11-18 03:03:00,32.7,20.8,30.13,NNW,329,3.0,6.0,61,0.00,,---,0.01,VWS V15.00,2017-11-18 10:03:00,
2017-11-18 03:08:00,32.7,20.4,30.16,NNW,340,1.0,2.0,60,0.00,,---,0.01,VWS V15.00,2017-11-18 10:08:00,
2017-11-18 03:13:00,32.6,20.3,30.16,NNW,338,2.0,2.0,60,0.00,,---,0.01,VWS V15.00,2017-11-18 10:13:00,
2017-11-18 03:19:00,32.4,20.1,30.16,NNW,340,2.0,4.0,60,0.00,,---,0.01,VWS V15.00,2017-11-18 10:19:00,
2017-11-18 03:24:00,32.2,19.9,30.16,West,273,7.0,7.0,60,0.00,,---,0.01,VWS V15.00,2017-11-18 10:24:00,
2017-11-18 03:30:00,32.0,19.7,30.16,NW,313,3.0,6.0,60,0.00,,---,0.01,VWS V15.00,2017-11-18 10:30:00,
2017-11-18 03:35:00,32.1,19.4,30.16,West,278,4.0,9.0,59,0.00,,---,0.01,VWS V15.00,2017-11-18 10:35:00,
2017-11-18 03:41:00,32.2,19.1,30.16,NNW,327,2.0,4.0,58,0.00,,---,0.01,VWS V15.00,2017-11-18 10:41:00,
2017-11-18 03:47:00,32.2,19.1,30.16,WNW,287,2.0,5.0,58,0.00,,---,0.01,VWS V15.00,2017-11-18 10:47:00,
2017-11-18 03:52:00,32.1,19.0,30.16,West,264,4.0,7.0,58,0.00,,---,0.01,VWS V15.00,2017-11-18 10:52:00,
2017-11-18 03:57:00,32.0,18.9,30.17,West,268,3.0,4.0,58,0.00,,---,0.01,VWS V15.00,2017-11-18 10:57:00,
2017-11-18 04:03:00,31.8,19.1,30.17,NW,309,3.0,4.0,59,0.00,,---,0.01,VWS V15.00,2017-11-18 11:03:00,
2017-11-18 04:09:00,31.6,18.9,30.23,NW,322,2.0,3.0,59,0.00,,---,0.01,VWS V15.00,2017-11-18 11:09:00,
2017-11-18 04:14:00,31.4,19.1,30.23,NW,323,0.0,1.0,60,0.00,,---,0.01,VWS V15.00,2017-11-18 11:14:00,
2017-11-18 04:19:00,31.2,19.0,30.23,NW,323,0.0,0.0,60,0.00,,---,0.01,VWS V15.00,2017-11-18 11:19:00,
2017-11-18 04:25:00,31.0,19.1,30.23,NW,323,1.0,2.0,61,0.00,,---,0.01,VWS V15.00,2017-11-18 11:25:00,
2017-11-18 04:31:00,30.9,19.0,30.24,NW,323,4.0,4.0,61,0.00,,---,0.01,VWS V15.00,2017-11-18 11:31:00,
2017-11-18 04:36:00,30.9,19.0,30.23,NW,325,2.0,3.0,61,0.00,,---,0.01,VWS V15.00,2017-11-18 11:36:00,
2017-11-18 04:41:00,31.1,18.9,30.23,NW,325,3.0,6.0,60,0.00,,---,0.01,VWS V15.00,2017-11-18 11:41:00,
2017-11-18 04:46:00,31.4,18.7,30.24,NW,325,6.0,8.0,59,0.00,,---,0.01,VWS V15.00,2017-11-18 11:46:00,
2017-11-18 04:51:00,31.6,18.5,30.24,NW,326,4.0,6.0,58,0.00,,---,0.01,VWS V15.00,2017-11-18 11:51:00,
2017-11-18 04:56:00,31.6,18.1,30.24,NNW,346,1.0,4.0,57,0.00,,---,0.01,VWS V15.00,2017-11-18 11:56:00,
2017-11-18 05:01:00,31.5,18.0,30.25,NW,325,5.0,9.0,57,0.00,,---,0.01,VWS V15.00,2017-11-18 12:01:00,
2017-11-18 05:06:00,31.3,17.9,30.24,NW,315,4.0,6.0,57,0.00,,---,0.01,VWS V15.00,2017-11-18 12:06:00,
2017-11-18 05:11:00,31.2,17.8,30.24,NNW,340,3.0,3.0,57,0.00,,---,0.01,VWS V15.00,2017-11-18 12:11:00,
2017-11-18 05:17:00,31.1,17.7,30.24,NNW,331,2.0,2.0,57,0.00,,---,0.01,VWS V15.00,2017-11-18 12:17:00,
2017-11-18 05:23:00,31.1,17.7,30.25,NNW,331,2.0,2.0,57,0.00,,---,0.01,VWS V15.00,2017-11-18 12:23:00,
2017-11-18 05:29:00,31.1,17.7,30.16,NNW,331,2.0,2.0,57,0.00,,---,0.01,VWS V15.00,2017-11-18 12:29:00,
2017-11-18 05:34:00,31.1,17.7,30.16,NNW,331,2.0,2.0,57,0.00,,---,0.01,VWS V15.00,2017-11-18 12:34:00,
2017-11-18 05:40:00,31.1,17.7,30.16,NNW,331,2.0,2.0,57,0.00,,---,0.01,VWS V15.00,2017-11-18 12:40:00,
2017-11-18 05:45:00,31.1,17.7,30.16,NNW,331,2.0,2.0,57,0.00,,---,0.01,VWS V15.00,2017-11-18 12:45:00,
2017-11-18 05:50:00,31.1,17.7,30.16,NNW,331,2.0,2.0,57,0.00,,---,0.01,VWS V15.00,2017-11-18 12:50:00,
2017-11-18 05:55:00,31.1,17.7,30.17,NNW,331,2.0,2.0,57,0.00,,---,0.01,VWS V15.00,2017-11-18 12:55:00,
2017-11-18 06:00:00,31.1,17.7,30.17,NNW,331,2.0,2.0,57,0.00,,---,0.01,VWS V15.00,2017-11-18 13:00:00,
2017-11-18 06:05:00,31.1,17.7,30.17,NNW,331,2.0,2.0,57,0.00,,---,0.01,VWS V15.00,2017-11-18 13:05:00,
2017-11-18 06:10:00,31.1,17.7,30.18,NNW,331,2.0,2.0,57,0.00,,---,0.01,VWS V15.00,2017-11-18 13:10:00,
2017-11-18 06:15:00,31.1,17.7,30.18,NNW,331,2.0,2.0,57,0.00,,---,0.01,VWS V15.00,2017-11-18 13:15:00,
2017-11-18 06:21:00,31.1,17.7,30.18,NNW,331,2.0,2.0,57,0.00,,---,0.01,VWS V15.00,2017-11-18 13:21:00,
2017-11-18 06:26:00,31.1,17.7,30.18,NNW,331,2.0,2.0,57,0.00,,---,0.01,VWS V15.00,2017-11-18 13:26:00,
2017-11-18 06:31:00,31.1,17.7,30.18,NNW,331,2.0,2.0,57,0.00,,---,0.01,VWS V15.00,2017-11-18 13:31:00,
2017-11-18 06:36:00,31.1,17.7,30.18,NNW,331,2.0,2.0,57,0.00,,---,0.01,VWS V15.00,2017-11-18 13:36:00,
2017-11-18 06:41:00,31.1,17.7,30.18,NNW,331,2.0,2.0,57,0.00,,---,0.01,VWS V15.00,2017-11-18 13:41:00,
2017-11-18 06:46:00,31.1,17.7,30.19,NNW,331,2.0,2.0,57,0.00,,---,0.01,VWS V15.00,2017-11-18 13:46:00,
2017-11-18 06:52:00,31.1,17.7,30.19,NNW,331,2.0,2.0,57,0.00,,---,0.01,VWS V15.00,2017-11-18 13:52:00,
2017-11-18 06:57:00,31.1,17.7,30.20,NNW,331,2.0,2.0,57,0.00,,---,0.01,VWS V15.00,2017-11-18 13:57:00,
2017-11-18 07:02:00,31.1,17.7,30.20,NNW,331,2.0,2.0,57,0.00,,---,0.01,VWS V15.00,2017-11-18 14:02:00,
2017-11-18 07:07:00,30.5,13.2,30.29,NNW,336,3.0,5.0,48,0.00,,---,0.01,VWS V15.00,2017-11-18 14:07:00,
2017-11-18 07:13:00,30.5,13.2,30.30,NW,317,2.0,5.0,48,0.00,,---,0.01,VWS V15.00,2017-11-18 14:13:00,
2017-11-18 07:18:00,30.5,13.2,30.30,NW,323,0.0,6.0,48,0.00,,---,0.01,VWS V15.00,2017-11-18 14:18:00,
2017-11-18 07:23:00,30.5,13.2,30.31,NW,321,3.0,3.0,48,0.00,,---,0.01,VWS V15.00,2017-11-18 14:23:00,
2017-11-18 07:29:00,30.6,13.3,30.31,North,349,4.0,5.0,48,0.00,,---,0.01,VWS V15.00,2017-11-18 14:29:00,
2017-11-18 07:35:00,30.6,13.3,30.31,NNW,327,3.0,4.0,48,0.00,,---,0.01,VWS V15.00,2017-11-18 14:35:00,
2017-11-18 07:41:00,30.6,13.3,30.31,NW,321,4.0,4.0,48,0.00,,---,0.01,VWS V15.00,2017-11-18 14:41:00,
2017-11-18 07:46:00,30.7,13.4,30.31,NNW,341,5.0,5.0,48,0.00,,---,0.01,VWS V15.00,2017-11-18 14:46:00,
2017-11-18 07:52:00,30.7,13.4,30.31,NNW,334,6.0,6.0,48,0.00,,---,0.01,VWS V15.00,2017-11-18 14:52:00,
2017-11-18 07:57:00,30.7,13.4,30.32,North,5,1.0,5.0,48,0.00,,---,0.01,VWS V15.00,2017-11-18 14:57:00,
2017-11-18 08:02:00,30.7,13.4,30.32,NNW,337,0.0,3.0,48,0.00,,---,0.01,VWS V15.00,2017-11-18 15:02:00,
2017-11-18 08:07:00,30.8,13.4,30.32,NNW,343,0.0,2.0,48,0.00,,---,0.01,VWS V15.00,2017-11-18 15:07:00,
2017-11-18 08:13:00,31.0,13.6,30.32,NNW,333,2.0,3.0,48,0.00,,---,0.01,VWS V15.00,2017-11-18 15:13:00,
2017-11-18 08:18:00,31.2,13.8,30.32,NNW,331,0.0,1.0,48,0.00,,---,0.01,VWS V15.00,2017-11-18 15:18:00,
2017-11-18 08:24:00,31.6,13.7,30.32,NNW,331,0.0,0.0,47,0.00,,---,0.01,VWS V15.00,2017-11-18 15:24:00,
2017-11-18 08:29:00,31.8,13.9,30.33,NNW,332,0.0,0.0,47,0.00,,---,0.01,VWS V15.00,2017-11-18 15:29:00,
2017-11-18 08:34:00,32.1,14.2,30.33,NNW,332,0.0,1.0,47,0.00,,---,0.01,VWS V15.00,2017-11-18 15:34:00,
2017-11-18 08:40:00,32.6,14.1,30.32,NNW,332,0.0,1.0,46,0.00,,---,0.01,VWS V15.00,2017-11-18 15:40:00,
2017-11-18 08:45:00,33.3,14.3,30.32,NW,326,1.0,2.0,45,0.00,,---,0.01,VWS V15.00,2017-11-18 15:45:00,
2017-11-18 08:50:00,33.8,14.2,30.32,NW,326,0.0,1.0,44,0.00,,---,0.01,VWS V15.00,2017-11-18 15:50:00,
2017-11-18 08:55:00,34.2,14.6,30.32,NW,326,1.0,1.0,44,0.00,,---,0.01,VWS V15.00,2017-11-18 15:55:00,
2017-11-18 09:01:00,34.4,14.8,30.32,NW,319,0.0,3.0,44,0.00,,---,0.01,VWS V15.00,2017-11-18 16:01:00,
2017-11-18 09:04:00,34.7,15.0,30.31,NW,319,0.0,1.0,44,0.00,,---,0.01,VWS V15.00,2017-11-18 16:04:00,
2017-11-18 09:09:00,35.1,14.9,30.31,NW,319,0.0,3.0,43,0.00,,---,0.01,VWS V15.00,2017-11-18 16:09:00,
2017-11-18 09:15:00,35.7,15.4,30.31,NNE,29,7.0,7.0,43,0.00,,---,0.01,VWS V15.00,2017-11-18 16:15:00,
2017-11-18 09:21:00,36.0,15.7,30.31,NNE,29,2.0,4.0,43,0.00,,---,0.01,VWS V15.00,2017-11-18 16:21:00,
2017-11-18 09:27:00,36.1,15.2,30.31,NNE,29,0.0,3.0,42,0.00,,---,0.01,VWS V15.00,2017-11-18 16:27:00,
2017-11-18 09:32:00,36.2,15.3,30.31,NNE,29,1.0,3.0,42,0.00,,---,0.01,VWS V15.00,2017-11-18 16:32:00,
2017-11-18 09:37:00,36.6,15.7,30.30,NNE,29,1.0,1.0,42,0.00,,---,0.01,VWS V15.00,2017-11-18 16:37:00,
2017-11-18 09:42:00,37.0,16.1,30.30,NNE,29,0.0,0.0,42,0.00,,---,0.01,VWS V15.00,2017-11-18 16:42:00,
2017-11-18 09:48:00,37.5,16.5,30.29,NNE,29,0.0,0.0,42,0.00,,---,0.01,VWS V15.00,2017-11-18 16:48:00,
2017-11-18 09:53:00,38.2,16.6,30.29,NNE,29,0.0,2.0,41,0.00,,---,0.01,VWS V15.00,2017-11-18 16:53:00,
2017-11-18 09:58:00,38.6,15.8,30.29,NNE,29,1.0,3.0,39,0.00,,---,0.01,VWS V15.00,2017-11-18 16:58:00,
2017-11-18 10:03:00,38.9,16.1,30.29,NNE,29,4.0,4.0,39,0.00,,---,0.01,VWS V15.00,2017-11-18 17:03:00,
2017-11-18 10:09:00,38.9,15.5,30.30,NNE,30,1.0,1.0,38,0.00,,---,0.01,VWS V15.00,2017-11-18 17:09:00,
2017-11-18 10:14:00,39.1,16.8,30.30,NNE,30,5.0,5.0,40,0.00,,---,0.01,VWS V15.00,2017-11-18 17:14:00,
2017-11-18 10:19:00,39.2,16.3,30.30,NNE,30,2.0,2.0,39,0.00,,---,0.01,VWS V15.00,2017-11-18 17:19:00,
2017-11-18 10:24:00,39.4,15.9,30.31,NNE,30,0.0,3.0,38,0.00,,---,0.01,VWS V15.00,2017-11-18 17:24:00,
2017-11-18 10:30:00,39.6,16.1,30.30,NNE,32,4.0,7.0,38,0.00,,---,0.01,VWS V15.00,2017-11-18 17:30:00,
2017-11-18 10:35:00,39.6,16.1,30.30,East,88,4.0,6.0,38,0.00,,---,0.01,VWS V15.00,2017-11-18 17:35:00,
2017-11-18 10:41:00,39.7,16.8,30.30,SE,136,3.0,3.0,39,0.00,,---,0.01,VWS V15.00,2017-11-18 17:41:00,
2017-11-18 10:42:00,39.7,16.2,30.30,SE,136,2.0,3.0,38,0.00,,---,0.01,VWS V15.00,2017-11-18 17:42:00,
2017-11-18 10:47:00,39.7,16.8,30.30,SSE,155,1.0,4.0,39,0.00,,---,0.01,VWS V15.00,2017-11-18 17:47:00,
2017-11-18 10:52:00,39.8,16.9,30.30,SSE,148,2.0,6.0,39,0.00,,---,0.01,VWS V15.00,2017-11-18 17:52:00,
2017-11-18 10:57:00,39.8,17.5,30.30,SE,142,4.0,6.0,40,0.00,,---,0.01,VWS V15.00,2017-11-18 17:57:00,
2017-11-18 11:02:00,39.9,17.5,30.29,SE,140,0.0,1.0,40,0.00,,---,0.01,VWS V15.00,2017-11-18 18:02:00,
2017-11-18 11:08:00,40.0,17.6,30.30,SE,130,6.0,6.0,40,0.00,,---,0.01,VWS V15.00,2017-11-18 18:08:00,
2017-11-18 11:13:00,40.1,17.7,30.30,SSE,153,2.0,3.0,40,0.00,,---,0.01,VWS V15.00,2017-11-18 18:13:00,
2017-11-18 11:19:00,40.5,17.5,30.30,SSE,151,4.0,7.0,39,0.00,,---,0.01,VWS V15.00,2017-11-18 18:19:00,
2017-11-18 11:24:00,40.9,17.3,30.30,ESE,107,6.0,8.0,38,0.00,,---,0.01,VWS V15.00,2017-11-18 18:24:00,
2017-11-18 11:29:00,40.9,16.6,30.30,SSE,159,1.0,4.0,37,0.00,,---,0.01,VWS V15.00,2017-11-18 18:29:00,
2017-11-18 11:34:00,41.1,16.8,30.29,SSE,165,1.0,4.0,37,0.00,,---,0.01,VWS V15.00,2017-11-18 18:34:00,
2017-11-18 11:39:00,41.6,16.6,30.28,South,175,2.0,5.0,36,0.00,,---,0.01,VWS V15.00,2017-11-18 18:39:00,
2017-11-18 11:44:00,41.9,17.5,30.28,SSE,150,3.0,6.0,37,0.00,,---,0.01,VWS V15.00,2017-11-18 18:44:00,
2017-11-18 11:49:00,42.3,17.3,30.28,SSE,168,3.0,7.0,36,0.00,,---,0.01,VWS V15.00,2017-11-18 18:49:00,
2017-11-18 11:54:00,42.5,17.4,30.27,SE,128,5.0,9.0,36,0.00,,---,0.01,VWS V15.00,2017-11-18 18:54:00,
2017-11-18 11:59:00,42.6,17.5,30.28,SE,124,1.0,6.0,36,0.00,,---,0.01,VWS V15.00,2017-11-18 18:59:00,
2017-11-18 12:04:00,42.7,17.0,30.27,SSE,155,4.0,5.0,35,0.00,,---,0.01,VWS V15.00,2017-11-18 19:04:00,
2017-11-18 12:10:00,42.8,16.4,30.30,South,190,3.0,10.0,34,0.00,,---,0.01,VWS V15.00,2017-11-18 19:10:00,
2017-11-18 12:15:00,43.2,16.7,30.30,South,190,0.0,3.0,34,0.00,,---,0.01,VWS V15.00,2017-11-18 19:15:00,
2017-11-18 12:20:00,43.6,15.0,30.29,South,177,7.0,9.0,31,0.00,,---,0.01,VWS V15.00,2017-11-18 19:20:00,
2017-11-18 12:25:00,43.6,15.0,30.29,SSE,147,2.0,2.0,31,0.00,,---,0.01,VWS V15.00,2017-11-18 19:25:00,
2017-11-18 12:31:00,43.8,15.1,30.29,SSE,158,2.0,6.0,31,0.00,,---,0.01,VWS V15.00,2017-11-18 19:31:00,
2017-11-18 12:36:00,44.1,13.9,30.29,ESE,102,3.0,6.0,29,0.00,,---,0.01,VWS V15.00,2017-11-18 19:36:00,
2017-11-18 12:41:00,44.2,14.8,30.29,East,96,5.0,9.0,30,0.00,,---,0.01,VWS V15.00,2017-11-18 19:41:00,
2017-11-18 12:46:00,44.2,14.0,30.28,SE,143,3.0,5.0,29,0.00,,---,0.01,VWS V15.00,2017-11-18 19:46:00,
2017-11-18 12:51:00,44.6,14.3,30.27,SSE,160,5.0,5.0,29,0.00,,---,0.01,VWS V15.00,2017-11-18 19:51:00,
2017-11-18 12:56:00,45.0,15.4,30.27,SSE,150,5.0,6.0,30,0.00,,---,0.01,VWS V15.00,2017-11-18 19:56:00,
2017-11-18 13:01:00,45.0,13.9,30.27,ESE,111,5.0,10.0,28,0.00,,---,0.01,VWS V15.00,2017-11-18 20:01:00,
2017-11-18 13:06:00,45.0,14.7,30.27,ESE,121,0.0,0.0,29,0.00,,---,0.01,VWS V15.00,2017-11-18 20:06:00,
2017-11-18 13:11:00,45.2,14.9,30.27,ESE,109,3.0,3.0,29,0.00,,---,0.01,VWS V15.00,2017-11-18 20:11:00,
2017-11-18 13:16:00,45.0,14.7,30.27,ENE,57,4.0,7.0,29,0.00,,---,0.01,VWS V15.00,2017-11-18 20:16:00,
2017-11-18 13:22:00,45.0,14.7,30.26,SE,124,5.0,5.0,29,0.00,,---,0.01,VWS V15.00,2017-11-18 20:22:00,
2017-11-18 13:27:00,45.5,15.1,30.27,ESE,123,2.0,4.0,29,0.00,,---,0.01,VWS V15.00,2017-11-18 20:27:00,
2017-11-18 13:32:00,45.7,15.3,30.25,South,176,2.0,5.0,29,0.00,,---,0.01,VWS V15.00,2017-11-18 20:32:00,
2017-11-18 13:37:00,46.0,15.5,30.25,South,178,2.0,5.0,29,0.00,,---,0.01,VWS V15.00,2017-11-18 20:37:00,
2017-11-18 13:43:00,46.0,15.5,30.25,East,92,6.0,10.0,29,0.00,,---,0.01,VWS V15.00,2017-11-18 20:43:00,
2017-11-18 13:48:00,45.9,15.4,30.24,SSE,150,5.0,5.0,29,0.00,,---,0.01,VWS V15.00,2017-11-18 20:48:00,
2017-11-18 13:53:00,45.8,14.6,30.25,SE,135,6.0,6.0,28,0.00,,---,0.01,VWS V15.00,2017-11-18 20:53:00,
2017-11-18 13:58:00,45.8,14.6,30.24,ESE,111,0.0,9.0,28,0.00,,---,0.01,VWS V15.00,2017-11-18 20:58:00,
2017-11-18 14:03:00,45.9,14.6,30.24,SSE,147,1.0,3.0,28,0.00,,---,0.01,VWS V15.00,2017-11-18 21:03:00,
2017-11-18 14:08:00,46.1,14.8,30.25,ESE,115,0.0,3.0,28,0.00,,---,0.01,VWS V15.00,2017-11-18 21:08:00,
2017-11-18 14:13:00,46.4,15.1,30.26,ESE,115,2.0,4.0,28,0.00,,---,0.01,VWS V15.00,2017-11-18 21:13:00,
2017-11-18 14:18:00,46.6,14.4,30.24,ESE,108,3.0,6.0,27,0.00,,---,0.01,VWS V15.00,2017-11-18 21:18:00,
2017-11-18 14:23:00,46.7,14.5,30.24,ESE,107,4.0,6.0,27,0.00,,---,0.01,VWS V15.00,2017-11-18 21:23:00,
2017-11-18 14:29:00,47.0,14.8,30.24,SSE,150,5.0,6.0,27,0.00,,---,0.01,VWS V15.00,2017-11-18 21:29:00,
2017-11-18 14:34:00,47.1,14.9,30.24,ESE,119,3.0,4.0,27,0.00,,---,0.01,VWS V15.00,2017-11-18 21:34:00,
2017-11-18 14:39:00,47.0,14.8,30.24,East,81,3.0,6.0,27,0.00,,---,0.01,VWS V15.00,2017-11-18 21:39:00,
2017-11-18 14:45:00,47.0,14.8,30.24,ESE,106,5.0,6.0,27,0.00,,---,0.01,VWS V15.00,2017-11-18 21:45:00,
2017-11-18 14:51:00,47.0,15.6,30.24,SE,134,0.0,5.0,28,0.00,,---,0.01,VWS V15.00,2017-11-18 21:51:00,